Location: Gilevgi
(36.8751°N, 30.0581°E)
Time: 10:03:09
(UTC+00:00)

CZ-2D R/B - Pass Details

Date: 13 March 2026
Orbit: 524 x 594 km, 98.0° (Epoch: 20 April)

Event Time Altitude Azimuth Distance (km) Brightness Sun altitude
Rises 17:24:09 0° 193° (SSW) 2,792 7.0 -16.6°
Reaches altitude 10° 17:26:33 10° 206° (SSW) 1,906 6.3 -17.0°
Maximum altitude 17:30:03 26° 264° (W) 1,168 5.7 -17.7°
Drops below altitude 10° 17:33:37 10° 322° (NW) 1,933 6.8 -18.4°
Sets 17:36:05 0° 334° (NNW) 2,842 7.5 -18.9°
